Location: Shepherdstown, WV
(39.4326°N, 77.8042°W)
Time: 00:43:39
(UTC-04:00)

S-56A Canister/Altair - Pass Details

Date: 29 July 2021
Orbit: 632 x 2500 km, 38.9° (Epoch: 27 September)

Event Time Altitude Azimuth Distance (km) Brightness Sun altitude
Rises 22:50:09 0° 289° (WNW) 6,115 13.0 -22.6°
Reaches altitude 10° 22:54:39 10° 283° (WNW) 4,980 12.3 -23.2°
Maximum altitude 23:06:59 41° 221° (SW) 2,618 10.0 -24.5°
Enters shadow 23:10:59 31° 181° (S) 2,734 9.8 -25.0°
